User: anonymous   Login
Location: Unspecified
(0.0000°N, 0.0000°E)
Time: 00:10:12
(UTC+02:00)
Language:

Cosmos 1315 Rocket - Orbit

View from above orbital plane
View from above orbital plane
View from above satellite
View from above satellite

Ground track
Ground track

The orbit data is extracted from the following two-line orbital elements,

1 12904U 81103B   18171.94069370 +.00000481 +00000-0 +31593-4 0  9993
2 12904 081.1768 214.3451 0027382 292.4254 067.4068 15.05514484548082
Epoch (UTC): 20 June 2018 22:34:35
Eccentricity: 0.0027382
inclination: 81.1768°
perigee height: 531 km
apogee height: 569 km
right ascension of ascending node: 214.3451°
argument of perigee: 292.4254°
revolutions per day: 15.05514484
mean anomaly at epoch: 67.4068°
orbit number at epoch: 54808

The dashed part of the orbit path shows where the satellite is in the earth's shadow,  

DLR